Location: Saint-Palais-sur-Mer
(45.6429°N, 1.0859°W)
Time: 16:17:54
(UTC+01:00)

S-56A Canister/Altair - Pass Details

Date: 09 February 2026
Orbit: 633 x 2484 km, 38.9° (Epoch: 16 March)

Event Time Altitude Azimuth Distance (km) Brightness Sun altitude
Exits shadow 06:55:13 17° 265° (W) 3,674 10.3 -14.5°
Maximum altitude 07:04:43 58° 194° (SSW) 2,508 10.0 -12.8°
Drops below altitude 10° 07:19:04 10° 122° (ESE) 5,136 13.0 -10.3°
Sets 07:23:12 0° 118° (ESE) 6,140 13.8 -9.6°
